Weather History for KOWP - September, 2014

Change the Weather History Date:

Thursday, September 4, 2014

  Actual Average (KTUL) Record (KTUL)
Temperature  
Mean Temperature 88 °F 78 °F  
Max Temperature 97 °F 89 °F 107 °F (1998)
Min Temperature 79 °F 67 °F 46 °F (1974)
Degree Days  
Heating Degree Days 0 0  
Month to date heating degree days 0  
Since 1 July heating degree days 0  
Cooling Degree Days 23 13  
Month to date cooling degree days 54  
Year to date cooling degree days 1755  
Growing Degree Days 38 (Base 50)    
Moisture  
Dew Point 65 °F    
Average Humidity 49    
Maximum Humidity 72    
Minimum Humidity 30    
Precipitation  
Precipitation 0.00 in 0.14 in 6.39 in (1940)
Month to date precipitation 0.54  
Year to date precipitation 28.02  
Sea Level Pressure  
Sea Level Pressure 29.96 in    
Wind  
Wind Speed 8 mph (South)    
Max Wind Speed 13 mph    
Max Gust Speed 22 mph    
Visibility 10 miles    
Events      
T = Trace of Precipitation, MM = Missing Value Source: NWS Daily Summary

Daily Weather History Graph

Daily Weather History Graph

Search for Another Location

Airport or City:

Trip Planner

Search our weather history database for the weather conditions in past years. The results will help you decide how hot, cold, wet, or windy it might be!

Date:

Astronomy

Sep. 04, 2014 Rise Set
Actual Time 6:58 AM CDT 7:47 PM CDT
Civil Twilight 6:32 AM CDT 8:14 PM CDT
Nautical Twilight 6:01 AM CDT 8:44 PM CDT
Astronomical Twilight 5:29 AM CDT 9:16 PM CDT
Moon 4:21 PM CDT (9/4) 1:56 AM CDT (9/4)
Length of Visible Light 13h 41m
Length of Day
12h 49m
Waxing Gibbous, 74% of the Moon is Illuminated
Sep 4
Waxing Gibbous
Sep 8
Full
Sep 15
Last Quarter
Sep 24
New
Oct 1
First Quarter

Hourly Weather History & Observations

Time (CDT) Temp. Heat Index Dew Point Humidity Pressure Visibility Wind Dir Wind Speed Gust Speed Precip Events Conditions
12:15 AM 84.0 °F 87.3 °F 68.2 °F 59% 29.92 in 10.0 mi South 8.1 mph - N/A   Clear
12:35 AM 83.5 °F 86.7 °F 68.2 °F 60% 29.92 in 10.0 mi South 9.2 mph - N/A   Clear
12:55 AM 83.5 °F 86.7 °F 68.2 °F 60% 29.92 in 10.0 mi SSE 8.1 mph - N/A   Clear
1:15 AM 82.9 °F 85.8 °F 68.0 °F 60% 29.92 in 10.0 mi South 8.1 mph - N/A   Clear
1:35 AM 83.1 °F 85.9 °F 67.6 °F 59% 29.92 in 10.0 mi South 8.1 mph - N/A   Clear
1:55 AM 83.3 °F 85.9 °F 67.3 °F 58% 29.92 in 10.0 mi South 6.9 mph - N/A   Clear
2:15 AM 82.8 °F 85.5 °F 67.5 °F 60% 29.92 in 10.0 mi South 9.2 mph - N/A   Clear
2:35 AM 82.4 °F 85.2 °F 67.6 °F 61% 29.92 in 10.0 mi South 6.9 mph - N/A   Clear
2:55 AM 82.8 °F 85.5 °F 67.6 °F 60% 29.92 in 10.0 mi South 9.2 mph - N/A   Clear
3:15 AM 82.6 °F 85.5 °F 67.8 °F 61% 29.92 in 10.0 mi South 11.5 mph - N/A   Clear
3:35 AM 82.4 °F 85.4 °F 68.0 °F 62% 29.93 in 10.0 mi South 9.2 mph - N/A   Clear
3:55 AM 81.9 °F 84.8 °F 68.2 °F 63% 29.94 in 10.0 mi South 9.2 mph 20.7 mph N/A   Clear
4:15 AM 81.7 °F 84.7 °F 68.4 °F 64% 29.94 in 10.0 mi South 8.1 mph 17.3 mph N/A   Clear
4:35 AM 81.5 °F 84.6 °F 68.7 °F 65% 29.94 in 10.0 mi South 6.9 mph - N/A   Clear
4:55 AM 81.0 °F 84.1 °F 68.9 °F 67% 29.94 in 10.0 mi South 10.4 mph - N/A   Clear
5:15 AM 80.8 °F 83.8 °F 68.9 °F 67% 29.94 in 10.0 mi South 8.1 mph - N/A   Clear
5:35 AM 80.6 °F 83.5 °F 68.9 °F 67% 29.94 in 10.0 mi South 6.9 mph - N/A   Clear
5:55 AM 80.1 °F 82.9 °F 69.1 °F 69% 29.94 in 10.0 mi South 6.9 mph - N/A   Clear
6:15 AM 80.2 °F 83.2 °F 69.1 °F 69% 29.95 in 10.0 mi South 8.1 mph - N/A   Clear
6:35 AM 79.9 °F - 69.1 °F 69% 29.95 in 10.0 mi South 8.1 mph - N/A   Clear
7:15 AM 79.2 °F - 69.4 °F 72% 29.96 in 10.0 mi South 6.9 mph - N/A   Clear
7:35 AM 79.2 °F - 69.4 °F 72% 29.97 in 10.0 mi South 4.6 mph - N/A   Clear
7:55 AM 79.7 °F - 69.8 °F 72% 29.98 in 10.0 mi South 4.6 mph - N/A   Clear
8:15 AM 80.6 °F 83.9 °F 69.8 °F 70% 29.98 in 10.0 mi South 5.8 mph - N/A   Clear
8:35 AM 81.3 °F 84.8 °F 69.8 °F 68% 29.99 in 10.0 mi South 5.8 mph - N/A   Clear
8:55 AM 82.6 °F 86.1 °F 69.3 °F 64% 29.99 in 10.0 mi SW 6.9 mph - N/A   Clear
9:15 AM 84.0 °F 87.8 °F 69.3 °F 61% 29.99 in 10.0 mi SW 8.1 mph - N/A   Clear
9:35 AM 84.9 °F 88.8 °F 68.9 °F 59% 30.00 in 10.0 mi SW 8.1 mph 19.6 mph N/A   Clear
9:55 AM 86.4 °F 90.4 °F 68.9 °F 56% 30.00 in 10.0 mi SSW 8.1 mph - N/A   Clear
10:15 AM 87.6 °F 91.5 °F 68.4 °F 53% 30.01 in 10.0 mi SSW 10.4 mph 16.1 mph N/A   Clear
10:35 AM 88.3 °F 91.2 °F 67.1 °F 49% 30.01 in 10.0 mi SSW 11.5 mph 18.4 mph N/A   Clear
10:55 AM 89.8 °F 92.9 °F 66.9 °F 47% 30.01 in 10.0 mi SSW 8.1 mph 18.4 mph N/A   Clear
11:15 AM 90.0 °F 92.0 °F 65.5 °F 44% 30.01 in 10.0 mi SW 8.1 mph 21.9 mph N/A   Clear
11:35 AM 91.4 °F 93.2 °F 64.9 °F 41% 30.01 in 10.0 mi SW 9.2 mph 18.4 mph N/A   Clear
11:55 AM 91.8 °F 93.8 °F 65.1 °F 41% 30.01 in 10.0 mi SSW 10.4 mph 16.1 mph N/A   Clear
12:15 PM 92.5 °F 94.1 °F 64.0 °F 39% 30.01 in 10.0 mi South 12.7 mph - N/A   Clear
12:35 PM 93.6 °F 95.0 °F 63.5 °F 37% 30.01 in 10.0 mi SSW 10.4 mph - N/A   Clear
12:55 PM 93.9 °F 94.8 °F 62.8 °F 35% 30.00 in 10.0 mi SSW 10.4 mph 19.6 mph N/A   Clear
1:15 PM 94.1 °F 94.6 °F 61.5 °F 34% 29.99 in 10.0 mi SSW 10.4 mph 20.7 mph N/A   Clear
1:35 PM 94.8 °F 95.3 °F 61.7 °F 33% 29.99 in 10.0 mi SSW 9.2 mph 19.6 mph N/A   Clear
1:55 PM 95.2 °F 95.5 °F 60.6 °F 32% 29.98 in 10.0 mi SSW 9.2 mph 18.4 mph N/A   Clear
2:15 PM 95.2 °F 94.7 °F 59.2 °F 30% 29.98 in 10.0 mi SW 10.4 mph 20.7 mph N/A   Clear
2:35 PM 96.6 °F 96.8 °F 60.8 °F 30% 29.97 in 10.0 mi South 9.2 mph 17.3 mph N/A   Clear
2:55 PM 95.9 °F 96.1 °F 60.8 °F 31% 29.96 in 10.0 mi SSW 12.7 mph 18.4 mph N/A   Clear
3:15 PM 96.8 °F 97.1 °F 60.3 °F 30% 29.95 in 10.0 mi South 10.4 mph 16.1 mph N/A   Clear
3:35 PM 97.3 °F 97.9 °F 61.0 °F 30% 29.95 in 10.0 mi South 12.7 mph 17.3 mph N/A   Clear
3:55 PM 96.8 °F 97.1 °F 60.4 °F 30% 29.94 in 10.0 mi South 12.7 mph 20.7 mph N/A   Clear
4:15 PM 97.0 °F 97.4 °F 61.0 °F 30% 29.93 in 10.0 mi South 11.5 mph 19.6 mph N/A   Clear
4:35 PM 97.0 °F 97.8 °F 61.3 °F 31% 29.93 in 10.0 mi SSW 9.2 mph 19.6 mph N/A   Clear
4:55 PM 97.2 °F 97.6 °F 61.0 °F 30% 29.94 in 10.0 mi South 12.7 mph 20.7 mph N/A   Clear
5:15 PM 97.0 °F 97.4 °F 60.6 °F 30% 29.93 in 10.0 mi SSW 8.1 mph - N/A   Clear
5:35 PM 96.8 °F 97.1 °F 60.4 °F 30% 29.93 in 10.0 mi South 8.1 mph 16.1 mph N/A   Clear
5:55 PM 96.8 °F 97.1 °F 60.3 °F 30% 29.93 in 10.0 mi South 11.5 mph 16.1 mph N/A   Clear
6:15 PM 96.1 °F 96.0 °F 60.4 °F 30% 29.93 in 10.0 mi South 11.5 mph 18.4 mph N/A   Clear
6:35 PM 95.4 °F 95.3 °F 60.6 °F 31% 29.94 in 10.0 mi South 8.1 mph - N/A   Clear
6:55 PM 94.5 °F 94.4 °F 60.6 °F 32% 29.94 in 10.0 mi South 9.2 mph 16.1 mph N/A   Clear
7:15 PM 93.4 °F 93.5 °F 61.3 °F 34% 29.94 in 10.0 mi South 6.9 mph - N/A   Clear
7:35 PM 91.9 °F 92.5 °F 62.1 °F 37% 29.94 in 10.0 mi South 6.9 mph - N/A   Clear
7:55 PM 90.9 °F 91.6 °F 62.6 °F 39% 29.94 in 10.0 mi South 9.2 mph - N/A   Clear
8:15 PM 90.5 °F 91.1 °F 62.6 °F 39% 29.95 in 10.0 mi South 8.1 mph - N/A   Clear
8:35 PM 90.1 °F 90.6 °F 62.4 °F 39% 29.95 in 10.0 mi South 8.1 mph - N/A   Clear
8:55 PM 88.0 °F 89.0 °F 63.9 °F 44% 29.96 in 10.0 mi SSE 4.6 mph - N/A   Clear
9:15 PM 86.7 °F 88.1 °F 64.4 °F 47% 29.97 in 10.0 mi SSE 4.6 mph - N/A   Clear
9:35 PM 85.1 °F 87.1 °F 65.8 °F 52% 29.98 in 10.0 mi SSE 5.8 mph - N/A   Clear
10:15 PM 85.6 °F 87.9 °F 66.4 °F 52% 29.99 in 10.0 mi South 8.1 mph - N/A   Clear
10:35 PM 85.6 °F 87.9 °F 66.2 °F 52% 30.00 in 10.0 mi South 8.1 mph - N/A   Clear
10:55 PM 85.5 °F 87.4 °F 65.7 °F 51% 30.01 in 10.0 mi South 6.9 mph - N/A   Clear
11:15 PM 84.6 °F 86.8 °F 66.2 °F 54% 30.01 in 10.0 mi South 8.1 mph - N/A   Clear
11:35 PM 84.2 °F 86.6 °F 66.2 °F 55% 30.01 in 10.0 mi South 5.8 mph - N/A   Clear
11:55 PM 83.7 °F 86.0 °F 66.2 °F 56% 30.02 in 10.0 mi South 5.8 mph - N/A   Clear